Powrót do katalogu

OPS 4682 DEB

AktywnyPO
NORAD 19950·DEBRIS·🇺🇸 United States

Wystrzelony Apr 3, 1965 z Vandenberg Space Force Base

Loading…

Następne Przeloty (najbliższe 24 godziny)

TLE

NieaktualneSource: Space-Track

Epoka: Aug 31, 2026, 18:46 UTC

1 19950U 65027AY  26243.78230833  .00000220  00000-0  75827-3 0  9991
2 19950  90.2487  10.9900 0029116 354.0443   6.0326 12.95027061562437

Śledź OPS 4682 DEB w czasie rzeczywistym z AllMySat

Download on the App Store